OBJECT UA

Last updated on Sun Jul 31 2022 00:02:07 GMT+0000 (Coordinated Universal Time)

1 53322U 98067UA 22206.86964718 .00005344 00000+0 10000-3 0 9995 2 53322 51.6406 144.9825 0004290 48.8609 311.2797 15.50444995 660
UTC large
Height (km)
Speed (km/s)
/
Latitude / Longitude
Inclination (degrees)
Orbital Period (minutes)
Azimuth
Elevation
Range (km)
Doppler Factor

Next 0 passes for location: London (51.5072 / 0.1276)

Sorry there are no passes over London.